Погода в Бухарае

Россия / Республика Татарстан     55˚08′42″N   52˚18′36″E
темп.,
°C
ветер,
м/с
пор.,
м/с
влажн.,
%
обл.,
%
осадки,
мм/ч
давл.,
гПа
погр.,
м
17 января, вс
вс1700:00−9˚зюз51095100 0.7 1000644
03:00−12˚зюз71393100 1.3 1000757
06:00−13˚зюз71293100 0.2 1001600
09:00−14˚зюз71292100 0.3 1004588
12:00−15˚зюз71193100 0.1 1007550
15:00−17˚зюз5994100 0.1 1010362
18:00−20˚зюз4699100 0.0 1013108
21:00−22˚зюз2310098 0.1 101632
18 января, пн
пн1800:00−24˚з1210096 0.0 101820
03:00−24˚ююз2210093 0.0 101920
06:00−25˚юз1210039 0.0 102020
09:00−24˚ююз129851 0.0 102120
12:00−20˚зсз119433 0.0 102095
15:00−23˚юв119733 0.0 102020
18:00−23˚вюв1194100 0.0 101920
21:00−23˚всв2294100 0.0 101921
19 января, вт
вт1900:00−21˚всв3595100 0.0 1018162
03:00−20˚всв3695100 0.0 1017218
06:00−20˚всв4798100 0.4 1015242
09:00−19˚св4798100 1.6 1014247
12:00−18˚св4797100 1.7 1012262
15:00−17˚св3696100 3.1 1011304
18:00−17˚ссв2497100 1.0 1010170
21:00−17˚сз1198100 1.4 101038
20 января, ср
ср2000:00−18˚зюз2398100 0.3 101088
03:00−19˚юз3697100 0.4 1011192
06:00−20˚юз479996 0.1 1011155
09:00−20˚юз599796 0.1 1012305
12:00−18˚юз5993100 0.1 1013486
15:00−18˚юз5895100 0.3 1013524
18:00−18˚зюз4897100 0.4 1014486
21:00−20˚з5897100 0.8 1015326
21 января, чт
чт2100:00−27˚зюз3410081 0.0 101551
03:00−22˚зюз389890 0.1 1016232
06:00−20˚зюз4898100 0.1 1016235
09:00−18˚зюз499798 0.3 1017265
12:00−15˚зюз579598 0.1 1017320
15:00−14˚зюз599499 0.2 1017380
18:00−14˚зюз4895100 0.1 1017332
21:00−15˚зюз389696 0.3 1017209